EW8702 Weather Reports


Display with metric or nautical units.
time (UTC)temp
F
wind
direction
speed
MPH
gust
MPH
rain 1hr
in
rain 24hr
in
rain mn
in
humidity
%
barometer
mb
20260508202122 71 207 8.0 13.0 0.00 0.00 0.00 26 1016.1
20260508201124 71 215 6.0 14.0 0.00 0.00 0.00 30 1016.1
20260508200122 71 214 6.0 12.0 0.00 0.00 0.00 26 1016.0
20260508195122 70 227 6.0 12.0 0.00 0.00 0.00 25 1016.0
20260508194122 70 246 6.0 11.0 0.00 0.00 0.00 30 1015.9
20260508193122 70 229 5.0 9.0 0.00 0.00 0.00 27 1016.0
20260508192143 71 210 4.0 11.0 0.00 0.00 0.00 31 1016.1
20260508191143 70 212 4.0 11.0 0.00 0.00 0.00 30 1016.3
20260508190143 70 238 5.0 9.0 0.00 0.00 0.00 33 1016.4
20260508185122 69 239 4.0 9.0 0.00 0.00 0.00 29 1016.4
20260508184143 69 240 5.0 9.0 0.00 0.00 0.00 32 1016.4
20260508183122 69 217 6.0 12.0 0.00 0.00 0.00 34 1016.6
20260508182122 69 227 5.0 11.0 0.00 0.00 0.00 31 1016.6
20260508181122 69 218 6.0 13.0 0.00 0.00 0.00 31 1016.6
20260508180122 69 226 5.0 10.0 0.00 0.00 0.00 32 1016.6
20260508175147 68 221 4.0 9.0 0.00 0.00 0.00 28 1016.8
20260508174122 68 214 5.0 11.0 0.00 0.00 0.00 30 1016.8
20260508173122 69 219 4.0 9.0 0.00 0.00 0.00 29 1016.8
20260508172122 68 300 1.0 4.0 0.00 0.00 0.00 45 1016.9
20260508171122 66 137 2.0 4.0 0.00 0.00 0.00 35 1016.9
20260508170122 65 130 1.0 3.0 0.00 0.00 0.00 42 1017.0
20260508165122 64 145 1.0 4.0 0.00 0.00 0.00 45 1017.1
20260508164122 62 152 1.0 3.0 0.00 0.00 0.00 45 1017.1
20260508163122 61 155 1.0 3.0 0.00 0.00 0.00 47 1017.1
20260508162122 60 149 2.0 3.0 0.00 0.00 0.00 47 1017.2
20260508161122 59 126 2.0 3.0 0.00 0.00 0.00 52 1017.1
20260508160122 58 121 1.0 3.0 0.00 0.00 0.00 52 1017.2
20260508155418 57 121 2.0 4.0 0.00 0.00 0.00 56 1017.3
20260508154228 55 130 2.0 5.0 0.00 0.00 0.00 56 1017.3
20260508153333 54 121 1.0 3.0 0.00 0.00 0.00 58 1017.2
20260508152122 51 122 1.0 4.0 0.00 0.00 0.00 65 1017.3
20260508151122 49 130 1.0 3.0 0.00 0.00 0.00 69 1017.3
20260508150122 48 126 0.0 2.0 0.00 0.00 0.00 71 1017.4
20260508145122 46 0 0.0 0.0 0.00 0.00 0.00 73 1017.4
20260508144122 45 0 0.0 0.0 0.00 0.00 0.00 73 1017.3
20260508143122 45 0 0.0 0.0 0.00 0.00 0.00 74 1017.4
20260508142122 44 0 0.0 0.0 0.00 0.00 0.00 75 1017.4
20260508141122 44 121 0.0 1.0 0.00 0.00 0.00 75 1017.3
20260508140123 43 119 0.0 1.0 0.00 0.00 0.00 76 1017.3
20260508135122 43 115 0.0 2.0 0.00 0.00 0.00 77 1017.3
20260508134122 42 0 0.0 1.0 0.00 0.00 0.00 77 1017.2
20260508133122 41 186 0.0 3.0 0.00 0.00 0.00 78 1017.1
20260508132122 40 0 0.0 0.0 0.00 0.00 0.00 77 1017.0
20260508131122 39 0 0.0 0.0 0.00 0.00 0.00 76 1016.9
20260508130122 39 289 0.0 1.0 0.00 0.00 0.00 75 1016.8
20260508125122 39 288 0.0 3.0 0.00 0.00 0.00 75 1016.7
20260508124122 40 0 0.0 0.0 0.00 0.00 0.00 74 1016.6
20260508123143 40 290 0.0 2.0 0.00 0.00 0.00 74 1016.6
20260508122122 40 290 0.0 1.0 0.00 0.00 0.00 74 1016.4
20260508121122 40 0 0.0 0.0 0.00 0.00 0.00 74 1016.4
20260508120122 41 0 0.0 0.0 0.00 0.00 0.00 74 1016.3
20260508115122 41 0 0.0 0.0 0.00 0.00 0.00 75 1016.2
20260508114122 41 0 0.0 0.0 0.00 0.00 0.00 75 1016.1
20260508113122 41 292 0.0 2.0 0.00 0.00 0.00 75 1016.1
20260508112143 40 296 0.0 3.0 0.00 0.00 0.00 74 1016.0
20260508111122 40 0 0.0 0.0 0.00 0.00 0.00 73 1015.9
20260508110122 41 0 0.0 0.0 0.00 0.00 0.00 72 1015.9
20260508105122 41 0 0.0 0.0 0.00 0.00 0.00 71 1015.8
20260508104122 42 0 0.0 0.0 0.00 0.00 0.00 72 1015.7
20260508103122 42 0 0.0 0.0 0.00 0.00 0.00 72 1015.7
20260508102122 42 0 0.0 0.0 0.00 0.00 0.00 72 1015.6
20260508101143 42 0 0.0 0.0 0.00 0.00 0.00 71 1015.6
20260508100122 42 0 0.0 0.0 0.00 0.00 0.00 70 1015.4
20260508095122 43 0 0.0 0.0 0.00 0.00 0.00 70 1015.5
20260508094143 43 0 0.0 0.0 0.00 0.00 0.00 70 1015.4
20260508093143 43 0 0.0 0.0 0.00 0.00 0.00 71 1015.5
20260508092143 43 0 0.0 0.0 0.00 0.00 0.00 72 1015.5
20260508091143 43 0 0.0 0.0 0.00 0.00 0.00 71 1015.5
20260508090122 43 278 0.0 2.0 0.00 0.00 0.00 68 1015.4
20260508085122 44 0 0.0 0.0 0.00 0.00 0.00 68 1015.3
20260508084122 44 277 0.0 1.0 0.00 0.00 0.00 67 1015.3
20260508083122 44 274 0.0 3.0 0.00 0.00 0.00 66 1015.5
20260508082143 45 0 0.0 1.0 0.00 0.00 0.00 64 1015.4
20260508081122 45 0 0.0 0.0 0.00 0.00 0.00 63 1015.4
20260508080122 46 274 0.0 3.0 0.00 0.00 0.00 63 1015.4
20260508075122 46 274 0.0 1.0 0.00 0.00 0.00 63 1015.4
20260508074123 46 0 0.0 0.0 0.00 0.00 0.00 63 1015.4
20260508073122 47 273 0.0 2.0 0.00 0.00 0.00 63 1015.3
20260508072122 47 0 0.0 0.0 0.00 0.00 0.00 62 1015.3
20260508071143 47 0 0.0 0.0 0.00 0.00 0.00 62 1015.3
20260508070122 48 0 0.0 0.0 0.00 0.00 0.00 61 1015.4
20260508065122 48 0 0.0 0.0 0.00 0.00 0.00 61 1015.2
20260508064122 49 0 0.0 0.0 0.00 0.00 0.00 60 1015.1
20260508063122 49 0 0.0 0.0 0.00 0.00 0.00 60 1015.1
20260508062122 50 0 0.0 0.0 0.00 0.00 0.00 58 1015.0
20260508061143 51 0 0.0 0.0 0.00 0.00 0.00 57 1014.9
20260508055122 52 0 0.0 0.0 0.00 0.00 0.00 56 1014.9
20260508054122 52 0 0.0 0.0 0.00 0.00 0.00 55 1014.9
20260508053122 53 0 0.0 0.0 0.00 0.00 0.00 53 1014.9
20260508052122 53 0 0.0 1.0 0.00 0.00 0.00 52 1014.9
20260508051143 53 0 0.0 1.0 0.00 0.00 0.00 51 1014.9
20260508050122 54 288 1.0 4.0 0.00 0.00 0.00 51 1014.9
20260508045122 54 305 0.0 3.0 0.00 0.00 0.00 50 1014.8
20260508044143 53 317 1.0 5.0 0.00 0.00 0.00 51 1014.7
20260508043122 54 296 0.0 2.0 0.00 0.00 0.00 51 1014.7
20260508042143 54 295 1.0 3.0 0.00 0.00 0.00 51 1014.6
20260508041122 54 282 1.0 4.0 0.00 0.00 0.00 52 1014.5
20260508040122 55 283 1.0 4.0 0.00 0.00 0.00 51 1014.3
20260508035122 55 275 0.0 4.0 0.00 0.00 0.00 51 1014.2
20260508034122 56 310 2.0 5.0 0.00 0.00 0.00 48 1014.0
20260508033122 57 265 3.0 6.0 0.00 0.00 0.00 48 1014.0
20260508032122 59 257 1.0 4.0 0.00 0.00 0.00 45 1013.9
20260508031144 60 294 1.0 3.0 0.00 0.00 0.00 41 1013.6
20260508030122 61 324 1.0 3.0 0.00 0.00 0.00 41 1013.5
20260508025122 62 331 1.0 2.0 0.00 0.00 0.00 37 1013.4
20260508024143 63 319 1.0 4.0 0.00 0.00 0.00 37 1013.4
20260508023122 64 247 0.0 4.0 0.00 0.00 0.00 41 1013.3
20260508022143 65 211 1.0 3.0 0.00 0.00 0.00 33 1013.3
20260508021122 65 256 2.0 6.0 0.00 0.00 0.00 34 1013.3
20260508020143 66 277 1.0 4.0 0.00 0.00 0.00 31 1013.2
20260508015122 67 224 2.0 4.0 0.00 0.00 0.00 30 1013.2
20260508014122 68 204 1.0 4.0 0.00 0.00 0.00 29 1013.2
20260508013122 68 229 2.0 7.0 0.00 0.00 0.00 31 1013.2
20260508012122 68 246 3.0 5.0 0.00 0.00 0.00 29 1013.2
20260508011143 68 240 3.0 9.0 0.00 0.00 0.00 29 1013.2
20260508010122 69 251 4.0 10.0 0.00 0.00 0.00 28 1013.2
20260508005122 69 268 3.0 10.0 0.00 0.00 0.00 29 1013.2
20260508004122 69 268 6.0 13.0 0.00 0.00 0.00 28 1013.3
20260508003122 69 261 3.0 11.0 0.00 0.00 0.00 28 1013.3
20260508002122 69 253 5.0 10.0 0.00 0.00 0.00 32 1013.3
20260508001122 69 190 3.0 6.0 0.00 0.00 0.00 29 1013.3
20260508000122 69 253 2.0 4.0 0.00 0.00 0.00 30 1013.6
20260507235122 69 257 4.0 9.0 0.00 0.00 0.00 31 1013.7
20260507234122 69 256 4.0 10.0 0.00 0.00 0.00 36 1013.7
20260507233122 69 269 5.0 11.0 0.00 0.00 0.00 30 1013.9
20260507232122 69 259 5.0 9.0 0.00 0.00 0.00 30 1014.1
20260507231122 69 258 5.0 12.0 0.00 0.00 0.00 30 1014.2
20260507230122 69 223 3.0 8.0 0.00 0.00 0.00 33 1014.2
20260507225122 69 234 3.0 6.0 0.00 0.00 0.00 31 1014.4
20260507224122 68 254 2.0 6.0 0.00 0.00 0.00 30 1014.6
20260507223122 68 219 3.0 8.0 0.00 0.00 0.00 31 1014.8
20260507222143 66 238 2.0 6.0 0.00 0.00 0.00 33 1014.9
20260507221122 65 268 1.0 4.0 0.00 0.00 0.00 33 1015.1
20260507220122 65 260 2.0 7.0 0.00 0.00 0.00 31 1015.2
20260507215122 66 262 2.0 8.0 0.00 0.00 0.00 30 1015.4
20260507214122 66 231 2.0 4.0 0.00 0.00 0.00 30 1015.5
20260507213122 65 268 3.0 8.0 0.00 0.00 0.00 32 1015.6
20260507212122 66 226 2.0 4.0 0.00 0.00 0.00 32 1015.8
20260507211143 66 243 4.0 12.0 0.00 0.00 0.00 32 1016.0
20260507210122 67 231 4.0 9.0 0.00 0.00 0.00 31 1016.0
20260507205122 67 259 5.0 12.0 0.00 0.00 0.00 30 1015.9
20260507204122 68 246 5.0 12.0 0.00 0.00 0.00 29 1015.9
20260507203122 68 248 4.0 9.0 0.00 0.00 0.00 31 1016.0